{"data":{"norad_id":67844,"intl_designator":"2026-033Z","name":"STARLINK-36598","alt_names":[],"object_type":"PAYLOAD","status":"ACTIVE","operator":null,"country":"US","launch_date":"2026-02-16","launch_site_code":"AFETR","launch_vehicle":null,"mission":null,"orbit_class":"UNKNOWN","rcs_meters":null,"size_class":null,"mass_kg":null,"dimensions":null,"purposes":["comms"],"wikipedia_slug":null,"has_3d_model":false,"image_url":null,"decayed_at":null,"tle_current":{"epoch":"2026-05-25T03:40:06.944160Z","epoch_age_seconds":55173,"freshness":"FRESH","line1":"1 67844U 26033Z   26145.15285815  .00011199  00000+0  41574-3 0  9990","line2":"2 67844  42.9987 195.6130 0001290 271.5846  88.4858 15.27588809 16360","mean_motion":15.27588809,"eccentricity":0.000129,"inclination_deg":42.9987,"raan_deg":195.613,"arg_perigee_deg":271.5846,"mean_anomaly_deg":88.4858,"bstar":0.00041574,"rev_number":1636,"period_min":94.266205114625,"perigee_km":482.13762924766,"apogee_km":483.90780845512,"semimajor_km":6861.1597188514,"source":"CELESTRAK","updated_at":"2026-05-25T13:38:21.722982Z"}}}